カタログに戻る

STARLINK-35786

運用中通信VLEO
NORAD 67040·PAYLOAD·🇺🇸 United States

打ち上げ Dec 11, 2025 から Cape Canaveral Space Force Station

Loading…

次のパス (今後24時間)

TLE

最新Source: CelesTrak SupGP

元期: Sep 14, 2026, 23:06 UTC

1 67040C 25294L   26257.96298611  .00037140  00000+0  13451-2 0  2570
2 67040  43.0027  49.3711 0001888 273.6581  87.6612 15.27562752    10

AllMySatでSTARLINK-35786をリアルタイム追跡

Download on the App Store